When you browse on this site, cookies collect data to enhance your experience and personalize the content and advertising you see.
Visit our Privacy Policy to learn more. By continuing to use the site, you agree to this use of cookies and data.
  • In Hungary
  • List of Countries
  • For 7 days
  • Water Temperature
  • Weather Map
  • News
  • Weather Widgets
  • user-avatar
    Login

    Hourly Weather Slavyanogorsk

    Today, 13 November, Wednesday

    Time Temperature Precipitation Wind Pressure Humidity
    00:00 +9°C° 0 mm 2 mps 763 mmHg 88%
    01:00 +8°C° 0 mm 2 mps 764 mmHg 89%
    02:00 +8°C° 0 mm 2 mps 764 mmHg 90%
    03:00 +8°C° 0 mm 2 mps 764 mmHg 90%
    04:00 +8°C° 0 mm 2 mps 764 mmHg 91%
    05:00 +7°C° 0 mm 3 mps 764 mmHg 91%
    06:00 +7°C° 0 mm 3 mps 763 mmHg 92%
    07:00 +7°C° 0 mm 3 mps 764 mmHg 90%
    08:00 +8°C° 0 mm 3 mps 764 mmHg 88%
    09:00 +7°C° 0 mm 4 mps 764 mmHg 87%
    10:00 +10°C° 0 mm 4 mps 764 mmHg 80%
    11:00 +10°C° 0 mm 5 mps 764 mmHg 73%
    12:00 +12°C° 0 mm 5 mps 764 mmHg 66%
    13:00 +13°C° 0 mm 5 mps 763 mmHg 64%
    14:00 +13°C° 0 mm 5 mps 763 mmHg 62%
    15:00 +13°C° 0 mm 5 mps 763 mmHg 61%
    16:00 +12°C° 0 mm 5 mps 763 mmHg 64%
    17:00 +11°C° 0 mm 4 mps 763 mmHg 67%
    18:00 +10°C° 0 mm 4 mps 763 mmHg 71%
    19:00 +8°C° 0 mm 5 mps 763 mmHg 71%
    20:00 +8°C° 0 mm 5 mps 763 mmHg 71%
    21:00 +7°C° 0 mm 5 mps 763 mmHg 72%
    22:00 +7°C° 0 mm 5 mps 763 mmHg 73%
    23:00 +6°C° 0 mm 5 mps 763 mmHg 74%

    Tomorrow, 14 November, Thursday

    Time Temperature Precipitation Wind Pressure Humidity
    00:00 +6°C° 0 mm 5 mps 763 mmHg 75%
    01:00 +5°C° 0 mm 5 mps 763 mmHg 75%
    02:00 +5°C° 0 mm 5 mps 763 mmHg 75%
    03:00 +3°C° 0 mm 5 mps 763 mmHg 75%
    04:00 +3°C° 0 mm 5 mps 763 mmHg 75%
    05:00 +3°C° 0 mm 5 mps 763 mmHg 76%
    06:00 +2°C° 0 mm 6 mps 763 mmHg 77%
    07:00 +2°C° 0 mm 6 mps 763 mmHg 75%
    08:00 +3°C° 0 mm 7 mps 763 mmHg 74%
    09:00 +3°C° 0 mm 7 mps 764 mmHg 73%
    10:00 +4°C° 0 mm 7 mps 764 mmHg 65%
    11:00 +5°C° 0 mm 7 mps 763 mmHg 57%
    12:00 +6°C° 0 mm 7 mps 763 mmHg 49%
    13:00 +8°C° 0 mm 7 mps 763 mmHg 47%
    14:00 +9°C° 0 mm 7 mps 763 mmHg 46%
    15:00 +9°C° 0 mm 7 mps 763 mmHg 44%
    16:00 +8°C° 0 mm 7 mps 763 mmHg 48%
    17:00 +6°C° 0 mm 7 mps 762 mmHg 51%
    18:00 +5°C° 0 mm 7 mps 762 mmHg 55%
    19:00 +5°C° 0 mm 7 mps 763 mmHg 56%
    20:00 +5°C° 0 mm 7 mps 763 mmHg 57%
    21:00 +4°C° 0 mm 7 mps 763 mmHg 58%
    22:00 +4°C° 0 mm 7 mps 763 mmHg 60%
    23:00 +4°C° 0 mm 7 mps 763 mmHg 61%

    Day after tomorrow, 15 November, Friday

    Time Temperature Precipitation Wind Pressure Humidity
    00:00 +3°C° 0 mm 7 mps 763 mmHg 62%
    01:00 +3°C° 0 mm 7 mps 763 mmHg 63%
    02:00 +3°C° 0 mm 7 mps 763 mmHg 64%
    03:00 +3°C° 0 mm 7 mps 763 mmHg 65%
    04:00 +3°C° 0 mm 7 mps 763 mmHg 66%
    05:00 +3°C° 0 mm 7 mps 763 mmHg 67%
    06:00 +2°C° 0 mm 7 mps 763 mmHg 68%
    07:00 +2°C° 0 mm 8 mps 763 mmHg 68%
    08:00 +2°C° 0 mm 8 mps 763 mmHg 68%
    09:00 +2°C° 0 mm 9 mps 764 mmHg 68%
    10:00 +4°C° 0 mm 8 mps 764 mmHg 65%
    11:00 +6°C° 0 mm 8 mps 764 mmHg 59%
    12:00 +7°C° 0 mm 8 mps 764 mmHg 53%
    13:00 +7°C° 0 mm 8 mps 764 mmHg 50%
    14:00 +9°C° 0 mm 8 mps 764 mmHg 48%
    15:00 +9°C° 0 mm 8 mps 764 mmHg 46%
    16:00 +8°C° 0 mm 7 mps 764 mmHg 49%
    17:00 +6°C° 0 mm 7 mps 764 mmHg 53%
    18:00 +7°C° 0 mm 6 mps 764 mmHg 56%
    19:00 +5°C° 0 mm 6 mps 764 mmHg 57%
    20:00 +5°C° 0 mm 6 mps 764 mmHg 58%
    21:00 +4°C° 0 mm 6 mps 764 mmHg 59%
    22:00 +4°C° 0 mm 6 mps 765 mmHg 61%
    23:00 +3°C° 0 mm 6 mps 765 mmHg 63%

    16 November, Saturday

    Time Temperature Precipitation Wind Pressure Humidity
    00:00 +3°C° 0 mm 6 mps 765 mmHg 65%
    01:00 +2°C° 0 mm 5 mps 765 mmHg 68%
    02:00 +2°C° 0 mm 5 mps 765 mmHg 70%
    03:00 +2°C° 0 mm 5 mps 765 mmHg 73%
    04:00 +1°C° 0 mm 5 mps 765 mmHg 75%
    05:00 +1°C° 0 mm 6 mps 765 mmHg 77%
    06:00 -1°C° 0 mm 6 mps 765 mmHg 78%
    07:00 +1°C° 0 mm 6 mps 766 mmHg 78%
    08:00 +1°C° 0 mm 6 mps 766 mmHg 78%
    09:00 0°C° 0 mm 7 mps 766 mmHg 78%
    10:00 +2°C° 0 mm 6 mps 766 mmHg 73%
    11:00 +3°C° 0 mm 6 mps 766 mmHg 68%
    12:00 +4°C° 0 mm 6 mps 766 mmHg 64%
    13:00 +5°C° 0 mm 6 mps 766 mmHg 61%
    14:00 +5°C° 0 mm 6 mps 766 mmHg 59%
    15:00 +7°C° 0 mm 6 mps 766 mmHg 56%
    16:00 +5°C° 0 mm 6 mps 766 mmHg 59%
    17:00 +5°C° 0 mm 5 mps 766 mmHg 62%
    18:00 +3°C° 0 mm 5 mps 766 mmHg 65%
    19:00 +3°C° 0 mm 5 mps 766 mmHg 66%
    20:00 +3°C° 0 mm 5 mps 766 mmHg 67%
    21:00 +2°C° 0 mm 5 mps 766 mmHg 68%
    22:00 +2°C° 0 mm 5 mps 767 mmHg 70%
    23:00 +2°C° 0 mm 5 mps 767 mmHg 73%

    17 November, Sunday

    Time Temperature Precipitation Wind Pressure Humidity
    00:00 +1°C° 0 mm 4 mps 767 mmHg 75%
    01:00 +1°C° 0 mm 4 mps 767 mmHg 77%
    02:00 0°C° 0 mm 4 mps 767 mmHg 80%
    03:00 0°C° 0 mm 4 mps 767 mmHg 83%
    04:00 0°C° 0 mm 4 mps 767 mmHg 85%
    05:00 0°C° 0 mm 4 mps 767 mmHg 88%
    06:00 -1°C° 0 mm 4 mps 767 mmHg 90%
    07:00 0°C° 0 mm 4 mps 767 mmHg 89%
    08:00 0°C° 0 mm 4 mps 768 mmHg 88%
    09:00 0°C° 0 mm 5 mps 768 mmHg 87%
    10:00 +1°C° 0 mm 5 mps 768 mmHg 81%
    11:00 +3°C° 0 mm 5 mps 768 mmHg 75%
    12:00 +5°C° 0 mm 5 mps 768 mmHg 69%
    13:00 +5°C° 0 mm 5 mps 767 mmHg 67%
    14:00 +6°C° 0 mm 5 mps 767 mmHg 65%
    15:00 +7°C° 0 mm 5 mps 767 mmHg 64%
    16:00 +6°C° 0 mm 4 mps 767 mmHg 68%
    17:00 +5°C° 0 mm 4 mps 767 mmHg 72%
    18:00 +4°C° 0 mm 4 mps 767 mmHg 76%
    19:00 +4°C° 0 mm 4 mps 767 mmHg 76%
    20:00 +4°C° 0 mm 4 mps 767 mmHg 77%
    21:00 +4°C° 0 mm 4 mps 767 mmHg 78%
    22:00 +3°C° 0 mm 4 mps 767 mmHg 79%
    23:00 +3°C° 0 mm 4 mps 767 mmHg 80%

    18 November, Monday

    Time Temperature Precipitation Wind Pressure Humidity
    00:00 +2°C° 0 mm 3 mps 767 mmHg 81%
    01:00 +2°C° 0 mm 3 mps 767 mmHg 81%
    02:00 +2°C° 0 mm 3 mps 766 mmHg 81%
    03:00 +1°C° 0 mm 3 mps 766 mmHg 81%
    04:00 +1°C° 0 mm 3 mps 766 mmHg 79%
    05:00 +1°C° 0 mm 3 mps 766 mmHg 76%
    06:00 0°C° 0 mm 4 mps 766 mmHg 74%
    07:00 0°C° 0 mm 4 mps 766 mmHg 71%
    08:00 0°C° 0 mm 4 mps 766 mmHg 68%
    09:00 +1°C° 0 mm 4 mps 766 mmHg 65%
    10:00 +3°C° 0 mm 4 mps 766 mmHg 58%
    11:00 +5°C° 0 mm 4 mps 766 mmHg 51%
    12:00 +6°C° 0 mm 4 mps 766 mmHg 45%
    13:00 +7°C° 0 mm 4 mps 765 mmHg 41%
    14:00 +8°C° 0 mm 4 mps 765 mmHg 38%
    15:00 +8°C° 0 mm 4 mps 764 mmHg 34%
    16:00 +7°C° 0 mm 4 mps 764 mmHg 37%
    17:00 +6°C° 0 mm 4 mps 764 mmHg 40%
    18:00 +5°C° 0 mm 4 mps 764 mmHg 44%
    19:00 +4°C° 0 mm 4 mps 764 mmHg 45%
    20:00 +4°C° 0 mm 4 mps 764 mmHg 46%
    21:00 +3°C° 0 mm 4 mps 764 mmHg 48%
    22:00 +3°C° 0 mm 4 mps 764 mmHg 49%
    23:00 +2°C° 0 mm 3 mps 764 mmHg 51%
    Show more